Location: Sundre
(51.7972°N, 114.6405°W)
Time: 03:23:27
(UTC-06:00)

Envisat - Visible Passes

Search period start: 19 October 2019 00:00
Search period end: 29 October 2019 00:00
Orbit: 764 x 766 km, 98.1° (Epoch: 19 October)

Date Brightness Start Highest point End Pass type
(mag) Time Alt. Az. Time Alt. Az. Time Alt. Az.
19 Oct 6.0 07:32:15 10° NE 07:36:04 21° E 07:39:51 10° SE visible
19 Oct 5.0 20:31:25 10° SSW 20:35:52 30° W 20:40:21 10° NNW visible
20 Oct 6.7 06:58:04 10° ENE 06:58:44 10° E 06:59:25 10° E visible
20 Oct 3.7 19:53:52 10° S 19:58:52 59° W 20:03:55 10° NNW visible
21 Oct 3.0 19:17:01 10° SSE 19:22:04 73° ENE 19:27:09 10° NNW visible
21 Oct 5.7 20:58:03 10° SW 21:01:39 19° W 21:05:16 10° NW visible
22 Oct 6.1 07:21:21 10° NE 07:24:40 17° E 07:27:57 10° SE visible
22 Oct 4.6 20:19:50 10° SSW 20:24:31 37° W 20:29:14 10° NNW visible
23 Oct 3.3 19:42:30 10° S 19:47:34 72° WSW 19:52:40 10° NNW visible
23 Oct 6.2 21:25:45 10° WSW 21:27:32 12° W 21:29:20 10° WNW visible
24 Oct 3.0 19:05:51 10° SSE 19:10:49 60° ENE 19:15:51 10° N visible
24 Oct 5.4 20:46:14 10° SW 20:50:15 23° W 20:54:17 10° NW visible
25 Oct 6.2 07:10:36 10° NE 07:13:14 14° E 07:15:51 10° ESE visible
25 Oct 4.2 20:08:20 10° S 20:13:10 45° W 20:18:04 10° NNW visible
26 Oct 3.0 19:31:13 10° SSE 19:36:18 87° WSW 19:41:25 10° NNW visible
26 Oct 6.0 21:13:20 10° WSW 21:16:06 15° W 21:18:53 10° NW visible
27 Oct 5.9 07:35:07 10° NE 07:39:05 22° E 07:43:02 10° SE visible
27 Oct 3.2 18:54:44 10° SE 18:59:36 50° ENE 19:04:31 10° N visible
27 Oct 5.1 20:34:32 10° SSW 20:38:52 28° W 20:43:14 10° NW visible
28 Oct 6.5 07:00:15 10° ENE 07:01:47 11° E 07:03:20 10° E visible
28 Oct 3.8 19:56:53 10° S 20:01:51 54° W 20:06:52 10° NNW visible
